Time,TemperatureF,DewpointF,PressureIn,WindDirection,WindDirectionDegrees,WindSpeedMPH,WindSpeedGustMPH,Humidity,HourlyPrecipIn,Conditions,Clouds,dailyrainin,SoftwareType,DateUTC
2013-01-19 00:12:00,58.0,54.0,30.25,NE,40,0.0,2.0,87,0.00,,,0.00,weatherlink.com 1.10,2013-01-19 05:12:00,
2013-01-19 00:27:00,58.1,54.0,30.25,NW,307,0.0,5.0,86,0.00,,,0.00,weatherlink.com 1.10,2013-01-19 05:27:00,
2013-01-19 00:42:00,57.6,54.0,30.25,ENE,71,1.0,2.0,88,0.00,,,0.00,weatherlink.com 1.10,2013-01-19 05:42:00,
2013-01-19 00:57:00,57.7,54.0,30.25,West,281,0.0,2.0,87,0.00,,,0.00,weatherlink.com 1.10,2013-01-19 05:57:00,
2013-01-19 01:12:00,57.7,54.0,30.25,NE,36,0.0,4.0,86,0.00,,,0.00,weatherlink.com 1.10,2013-01-19 06:12:00,
2013-01-19 01:27:00,57.8,53.0,30.25,ENE,68,0.0,4.0,85,0.00,,,0.00,weatherlink.com 1.10,2013-01-19 06:27:00,
2013-01-19 01:42:00,57.3,54.0,30.24,West,276,0.0,3.0,87,0.00,,,0.00,weatherlink.com 1.10,2013-01-19 06:42:00,
2013-01-19 01:57:00,57.0,53.0,30.23,North,355,0.0,2.0,87,0.00,,,0.00,weatherlink.com 1.10,2013-01-19 06:57:00,
2013-01-19 02:12:00,57.2,53.0,30.23,WSW,253,0.0,4.0,86,0.00,,,0.00,weatherlink.com 1.10,2013-01-19 07:12:00,
2013-01-19 02:27:00,57.4,53.0,30.24,ENE,69,0.0,2.0,85,0.00,,,0.00,weatherlink.com 1.10,2013-01-19 07:27:00,
2013-01-19 02:43:00,57.4,53.0,30.23,North,8,0.0,3.0,85,0.00,,,0.00,weatherlink.com 1.10,2013-01-19 07:43:00,
2013-01-19 02:58:00,57.2,53.0,30.23,NNE,23,6.0,6.0,86,0.00,,,0.00,weatherlink.com 1.10,2013-01-19 07:58:00,
2013-01-19 03:13:00,56.7,53.0,30.23,East,98,1.0,3.0,87,0.00,,,0.00,weatherlink.com 1.10,2013-01-19 08:13:00,
2013-01-19 03:28:00,56.4,53.0,30.23,ENE,71,1.0,5.0,88,0.00,,,0.00,weatherlink.com 1.10,2013-01-19 08:28:00,
2013-01-19 03:43:00,56.4,53.0,30.22,NE,42,0.0,4.0,88,0.00,,,0.00,weatherlink.com 1.10,2013-01-19 08:43:00,
2013-01-19 03:58:00,56.5,53.0,30.22,WNW,290,0.0,1.0,88,0.00,,,0.00,weatherlink.com 1.10,2013-01-19 08:58:00,
2013-01-19 04:13:00,56.6,53.0,30.21,ENE,62,1.0,3.0,88,0.00,,,0.00,weatherlink.com 1.10,2013-01-19 09:13:00,
2013-01-19 04:28:00,56.5,53.0,30.21,NE,36,0.0,4.0,89,0.00,,,0.00,weatherlink.com 1.10,2013-01-19 09:28:00,
2013-01-19 04:43:00,56.1,53.0,30.21,ENE,61,0.0,3.0,90,0.00,,,0.00,weatherlink.com 1.10,2013-01-19 09:43:00,
2013-01-19 04:58:00,56.0,54.0,30.22,West,259,0.0,2.0,91,0.00,,,0.00,weatherlink.com 1.10,2013-01-19 09:58:00,
2013-01-19 05:13:00,56.5,54.0,30.22,East,88,1.0,3.0,91,0.00,,,0.00,weatherlink.com 1.10,2013-01-19 10:13:00,
2013-01-19 05:28:00,56.9,54.0,30.22,ENE,65,1.0,2.0,90,0.00,,,0.00,weatherlink.com 1.10,2013-01-19 10:28:00,
2013-01-19 05:43:00,56.5,54.0,30.22,ENE,65,2.0,3.0,90,0.00,,,0.00,weatherlink.com 1.10,2013-01-19 10:43:00,
2013-01-19 05:58:00,56.5,54.0,30.22,East,84,0.0,4.0,91,0.00,,,0.00,weatherlink.com 1.10,2013-01-19 10:58:00,
2013-01-19 06:13:00,56.9,54.0,30.23,NE,46,0.0,4.0,91,0.00,,,0.00,weatherlink.com 1.10,2013-01-19 11:13:00,
2013-01-19 07:58:00,57.4,54.0,30.23,NNW,332,1.0,3.0,89,0.00,,,0.00,weatherlink.com 1.10,2013-01-19 12:58:00,
2013-01-19 08:13:00,58.4,55.0,30.24,NE,49,2.0,4.0,88,0.00,,,0.00,weatherlink.com 1.10,2013-01-19 13:13:00,
2013-01-19 08:28:00,59.7,56.0,30.24,NW,307,1.0,4.0,87,0.00,,,0.00,weatherlink.com 1.10,2013-01-19 13:28:00,
2013-01-19 08:43:00,60.6,56.0,30.25,NE,55,0.0,7.0,84,0.00,,,0.00,weatherlink.com 1.10,2013-01-19 13:43:00,
2013-01-19 08:58:00,61.5,56.0,30.25,ENE,64,2.0,6.0,82,0.00,,,0.00,weatherlink.com 1.10,2013-01-19 13:58:00,
2013-01-19 09:13:00,61.9,56.0,30.26,NNE,31,3.0,7.0,81,0.00,,,0.00,weatherlink.com 1.10,2013-01-19 14:13:00,
2013-01-19 09:28:00,63.5,57.0,30.26,ENE,57,3.0,7.0,80,0.00,,,0.00,weatherlink.com 1.10,2013-01-19 14:28:00,
2013-01-19 09:43:00,64.4,57.0,30.27,ENE,64,0.0,6.0,78,0.00,,,0.00,weatherlink.com 1.10,2013-01-19 14:43:00,
2013-01-19 09:58:00,65.1,58.0,30.27,NE,56,1.0,5.0,77,0.00,,,0.00,weatherlink.com 1.10,2013-01-19 14:58:00,
2013-01-19 10:13:00,66.5,59.0,30.27,East,82,3.0,4.0,76,0.00,,,0.00,weatherlink.com 1.10,2013-01-19 15:13:00,
2013-01-19 10:28:00,68.3,60.0,30.27,WSW,256,1.0,5.0,74,0.00,,,0.00,weatherlink.com 1.10,2013-01-19 15:28:00,
2013-01-19 10:44:00,69.2,60.0,30.26,NE,35,1.0,5.0,72,0.00,,,0.00,weatherlink.com 1.10,2013-01-19 15:44:00,
2013-01-19 10:59:00,69.6,61.0,30.26,ENE,63,3.0,7.0,73,0.00,,,0.00,weatherlink.com 1.10,2013-01-19 15:59:00,
2013-01-19 11:14:00,70.0,60.0,30.25,NNE,33,5.0,9.0,71,0.00,,,0.00,weatherlink.com 1.10,2013-01-19 16:14:00,
2013-01-19 11:29:00,70.2,61.0,30.24,ENE,65,2.0,9.0,72,0.00,,,0.00,weatherlink.com 1.10,2013-01-19 16:29:00,
2013-01-19 11:44:00,71.3,61.0,30.23,North,11,2.0,11.0,71,0.00,,,0.00,weatherlink.com 1.10,2013-01-19 16:44:00,
2013-01-19 11:59:00,72.5,61.0,30.22,East,86,7.0,10.0,68,0.00,,,0.00,weatherlink.com 1.10,2013-01-19 16:59:00,
2013-01-19 12:29:00,73.7,62.0,30.20,South,170,3.0,10.0,66,0.00,,,0.00,weatherlink.com 1.10,2013-01-19 17:29:00,
2013-01-19 12:44:00,72.6,62.0,30.19,ENE,62,1.0,8.0,69,0.00,,,0.00,weatherlink.com 1.10,2013-01-19 17:44:00,
2013-01-19 13:14:00,74.9,63.0,30.18,ESE,114,1.0,6.0,66,0.00,,,0.00,weatherlink.com 1.10,2013-01-19 18:14:00,
2013-01-19 13:29:00,74.0,62.0,30.16,ESE,123,6.0,9.0,67,0.00,,,0.00,weatherlink.com 1.10,2013-01-19 18:29:00,
2013-01-19 13:44:00,73.5,61.0,30.16,East,89,1.0,8.0,66,0.00,,,0.00,weatherlink.com 1.10,2013-01-19 18:44:00,
2013-01-19 14:14:00,73.7,62.0,30.13,East,80,1.0,9.0,67,0.00,,,0.00,weatherlink.com 1.10,2013-01-19 19:14:00,
2013-01-19 14:29:00,73.5,62.0,30.13,ENE,65,2.0,7.0,67,0.00,,,0.00,weatherlink.com 1.10,2013-01-19 19:29:00,
2013-01-19 14:44:00,73.6,62.0,30.13,NW,321,1.0,4.0,67,0.00,,,0.00,weatherlink.com 1.10,2013-01-19 19:44:00,
2013-01-19 15:00:00,73.4,62.0,30.13,ESE,112,6.0,6.0,67,0.00,,,0.00,weatherlink.com 1.10,2013-01-19 20:00:00,
2013-01-19 15:14:00,73.2,62.0,30.12,East,88,2.0,7.0,67,0.00,,,0.00,weatherlink.com 1.10,2013-01-19 20:14:00,
2013-01-19 15:29:00,73.7,62.0,30.12,ENE,63,0.0,6.0,68,0.00,,,0.00,weatherlink.com 1.10,2013-01-19 20:29:00,
2013-01-19 15:44:00,73.9,62.0,30.12,ESE,103,2.0,5.0,67,0.00,,,0.00,weatherlink.com 1.10,2013-01-19 20:44:00,
2013-01-19 15:59:00,73.4,63.0,30.12,NNE,21,1.0,8.0,69,0.00,,,0.00,weatherlink.com 1.10,2013-01-19 20:59:00,
2013-01-19 16:14:00,73.3,63.0,30.12,ENE,72,4.0,7.0,69,0.00,,,0.00,weatherlink.com 1.10,2013-01-19 21:14:00,
2013-01-19 16:45:00,73.3,63.0,30.13,East,101,5.0,5.0,69,0.00,,,0.00,weatherlink.com 1.10,2013-01-19 21:45:00,
2013-01-19 16:59:00,72.9,62.0,30.13,ENE,58,1.0,7.0,69,0.00,,,0.00,weatherlink.com 1.10,2013-01-19 21:59:00,
2013-01-19 17:14:00,72.7,63.0,30.13,East,99,0.0,5.0,71,0.00,,,0.00,weatherlink.com 1.10,2013-01-19 22:14:00,
2013-01-19 17:30:00,72.4,63.0,30.13,East,86,1.0,4.0,71,0.00,,,0.00,weatherlink.com 1.10,2013-01-19 22:30:00,
2013-01-19 17:45:00,71.8,62.0,30.14,ENE,74,1.0,8.0,72,0.00,,,0.00,weatherlink.com 1.10,2013-01-19 22:45:00,
2013-01-19 18:00:00,71.2,62.0,30.13,ENE,69,3.0,8.0,73,0.00,,,0.00,weatherlink.com 1.10,2013-01-19 23:00:00,
2013-01-19 18:15:00,70.6,62.0,30.14,ENE,58,0.0,2.0,75,0.00,,,0.00,weatherlink.com 1.10,2013-01-19 23:15:00,
2013-01-19 18:45:00,70.5,62.0,30.14,NE,35,0.0,5.0,75,0.00,,,0.00,weatherlink.com 1.10,2013-01-19 23:45:00,
2013-01-19 19:00:00,70.3,62.0,30.15,ENE,72,2.0,3.0,75,0.00,,,0.00,weatherlink.com 1.10,2013-01-20 00:00:00,
2013-01-19 19:15:00,69.9,62.0,30.15,ENE,57,1.0,3.0,76,0.00,,,0.00,weatherlink.com 1.10,2013-01-20 00:15:00,
2013-01-19 20:15:00,68.8,62.0,30.15,East,80,2.0,3.0,79,0.00,,,0.00,weatherlink.com 1.10,2013-01-20 01:15:00,
2013-01-19 20:30:00,68.2,62.0,30.16,ENE,76,0.0,1.0,80,0.00,,,0.00,weatherlink.com 1.10,2013-01-20 01:30:00,
2013-01-19 20:45:00,67.7,62.0,30.16,SE,126,0.0,1.0,82,0.00,,,0.00,weatherlink.com 1.10,2013-01-20 01:45:00,
2013-01-19 21:00:00,67.4,62.0,30.16,ESE,115,0.0,1.0,82,0.00,,,0.00,weatherlink.com 1.10,2013-01-20 02:00:00,
2013-01-19 21:15:00,66.6,61.0,30.15,ESE,113,0.0,1.0,83,0.00,,,0.00,weatherlink.com 1.10,2013-01-20 02:15:00,
2013-01-19 21:30:00,65.9,61.0,30.16,ESE,110,0.0,1.0,85,0.00,,,0.00,weatherlink.com 1.10,2013-01-20 02:30:00,
2013-01-19 21:45:00,65.2,61.0,30.15,ESE,108,0.0,0.0,86,0.00,,,0.00,weatherlink.com 1.10,2013-01-20 02:45:00,
2013-01-19 22:00:00,64.5,61.0,30.16,ESE,109,0.0,0.0,87,0.00,,,0.00,weatherlink.com 1.10,2013-01-20 03:00:00,
2013-01-19 22:15:00,63.9,60.0,30.16,ESE,109,0.0,0.0,88,0.00,,,0.00,weatherlink.com 1.10,2013-01-20 03:15:00,
2013-01-19 22:30:00,63.6,60.0,30.15,ESE,109,0.0,0.0,89,0.00,,,0.00,weatherlink.com 1.10,2013-01-20 03:30:00,
2013-01-19 23:00:00,64.1,61.0,30.15,ESE,107,0.0,1.0,90,0.00,,,0.00,weatherlink.com 1.10,2013-01-20 04:00:00,
2013-01-19 23:15:00,64.0,61.0,30.15,ESE,105,0.0,0.0,89,0.00,,,0.00,weatherlink.com 1.10,2013-01-20 04:15:00,
2013-01-19 23:30:00,64.0,61.0,30.15,East,82,0.0,1.0,89,0.00,,,0.00,weatherlink.com 1.10,2013-01-20 04:30:00,
2013-01-19 23:45:00,63.8,61.0,30.15,East,82,0.0,0.0,90,0.00,,,0.00,weatherlink.com 1.10,2013-01-20 04:45:00,